Torna al catalogo

FENGYUN 1C DEB

AttivoPO
NORAD 31415·DEBRIS·🇨🇳 China

Lanciato May 10, 1999 da Taiyuan Satellite Launch Center

Loading…

Prossimi Passaggi (prossime 24 ore)

TLE

AggiornatoSource: Space-Track

Epoca: Sep 13, 2026, 04:18 UTC

1 31415U 99025BTB 26256.17948472  .00001949  00000-0  72711-3 0  9996
2 31415  99.6686 243.7066 0062332  13.5582 346.7255 14.32213099667575

Traccia FENGYUN 1C DEB in tempo reale con AllMySat

Download on the App Store